AirNav   Pilot Hours Calculator
 
 902 users online  

KAOV Ava Bill Martin Memorial Airport
Ava, Missouri, USA

GOING TO AVA?


FAA INFORMATION EFFECTIVE 26 JANUARY 2023

Location

FAA Identifier: AOV
Lat/Long: 36-58-18.7940N 092-40-55.0050W
36-58.313233N 092-40.916750W
36.9718872,-92.6819458
(estimated)
Elevation: 1311 ft. / 399.6 m (surveyed)
Variation: 02E (2000)
From city: 2 miles NW of AVA, MO
Time zone: UTC -6 (UTC -5 during Daylight Saving Time)
Zip code: 65608

Airport Operations

Airport use: Open to the public
Control tower: no
ARTCC: KANSAS CITY CENTER
FSS: COLUMBIA FLIGHT SERVICE STATION
NOTAMs facility: COU (NOTAM-D service available)
Attendance: UNATNDD
Wind indicator: lighted
Segmented circle: yes
Lights: ACTVT PAPI RWY 13; MIRL RWY 13/31 - CTAF. PAPI INTST OPER ON PHOTO CELL DAY/NGT; MIRL INTST VRBL: 3, 5, 7 CLICKS - CTAF.
Beacon: white-green (lighted land airport)
Operates sunset to sunrise.

Airport Communications

CTAF/UNICOM: 122.7
SPRINGFIELD APPROACH: 126.35
SPRINGFIELD DEPARTURE: 126.35

Nearby radio navigation aids

VOR radial/distance  VOR name  Freq  Var
DGDr107/9.8DOGWOOD VORTAC109.4001E
SGFr122/38.8SPRINGFIELD VORTAC116.9004E

Airport Services

Fuel available: 100LL
Parking: tiedowns
Airframe service: MAJOR
Powerplant service: MAJOR
Bottled oxygen: NONE
Bulk oxygen: NONE

Runway Information

Runway 13/31

Dimensions: 3634 x 50 ft. / 1108 x 15 m
Surface: asphalt, in excellent condition
Runway edge lights: medium intensity
RUNWAY 13  RUNWAY 31
Latitude: 36-58.534085N36-58.093648N
Longitude: 092-41.169547W092-40.663890W
Elevation: 1277.0 ft.1311.0 ft.
Traffic pattern: leftleft
Runway heading: 135 magnetic, 137 true315 magnetic, 317 true
Markings: nonprecision, in good conditionnonprecision, in good condition
Visual slope indicator: 2-light PAPI on left (3.00 degrees glide path)
Touchdown point: yes, no lightsyes, no lights
Obstructions: 37 ft. trees, 235 ft. from runway, 197 ft. right of centerline, 1:1 slope to clear
TREES 10-35FT 10-175FT FROM RWY END, 150-250 FT RIGHT; TREES 10-43 FT 25-70 FT FROM RWY END, 235 FT LEFT
none

Airport Ownership and Management from official FAA records

Ownership: Publicly-owned
Owner: CITY OF AVA
404 SOUTH JEFFERSON ST, P.O. BOX 967
AVA, MO 65608
Phone 417-683-5516
Manager: DAVID DAVIDSON
PO BOX 967
AVA, MO 65608
Phone 417-683-3169

Airport Operational Statistics

Aircraft based on the field: 10
Single engine airplanes: 8
Multi engine airplanes: 2
    
Aircraft operations: avg 24/day *
74% local general aviation
20% transient general aviation
6% military
<1% air taxi
* for 12-month period ending 31 December 2021

Additional Remarks

NTSD RY SAFETY AREA BYD RY 13 END, INSUF LENGTH AND LARGE DROP OFF.
100LL SELF SVC CREDIT CARD AVBL 24 HRS.
CLICK PCL 5 TIMES TO UNLOCK TERMINAL DOOR.
FOR CD CTC SPRINGFIELD APCH AT 417-868-5620/5619.

Instrument Procedures

NOTE: All procedures below are presented as PDF files. If you need a reader for these files, you should download the free Adobe Reader.

NOT FOR NAVIGATION. Please procure official charts for flight.
FAA instrument procedures published for use from 26 January 2023 at 0901Z to 23 February 2023 at 0900z.

 
IAPs - Instrument Approach Procedures
RNAV (GPS) RWY 13   download
RNAV (GPS) RWY 31   download
VOR-A   download
NOTE: Special Take-Off Minimums/Departure Procedures apply   download (421KB)

Other nearby airports with instrument procedures:

1MO - Mountain Grove Memorial Airport (20 nm NE)
KTVB - Cabool Memorial Airport (30 nm E)
3DW - Downtown Airport (31 nm NW)
KPLK - M Graham Clark Downtown Airport (33 nm SW)
KBBG - Branson Airport (36 nm SW)
 
Loc | Ops | Rwys | IFR | FBO | Links
Com | Nav | Svcs | Stats | Notes

Branson Jet Center
AirBoss

 
Area around KAOV (Ava Bill Martin Memorial Airport)
 
Road maps at: MapQuest Bing Google
 
Aerial photo
WARNING: Photo may not be current or correct
Aerial photo of KAOV (Ava Bill Martin Memorial Airport)
Do you have a better or more recent aerial photo of Ava Bill Martin Memorial Airport that you would like to share? If so, please send us your photo.

 
Sectional chart

 
Airport distance calculator
Flying to Ava Bill Martin Memorial Airport? Find the distance to fly.

From to KAOV

Sunrise and sunset
Times for 27-Jan-2023
 Local
(UTC-6)
 Zulu
(UTC)
Morning civil twilight06:5012:50
Sunrise07:1813:18
Sunset17:2923:29
Evening civil twilight17:5723:57

Current date and time
Zulu (UTC)  28-Jan-2023 02:55:31
Local (UTC-6)  27-Jan-2023 20:55:31
 
METAR
KBBG 
36nm SW 
280145Z 20004KT 10SM CLR 08/M04 A3009
KSGF 
37nm NW 
280152Z 17006KT 10SM CLR 02/M03 A3005 RMK AO2 SLP184 T00171028
KBPK 
38nm S 
280153Z AUTO 23004KT 10SM CLR 07/M03 A3009 RMK AO2 SLP194 T00721033
KUNO 
38nm E 
280153Z AUTO 21005KT 10SM CLR 06/M03 A3009 RMK AO2 SLP194 T00611033
KFWB 
38nm SW 
280235Z AUTO 21005KT 10SM CLR 07/M04 A3008 RMK AO2
KLBO 
41nm N 
280235Z AUTO 19003KT 10SM CLR 03/M01 A3007 RMK AO2
KFLP 
43nm S 
280156Z AUTO 00000KT 10SM CLR 07/M02 A3011 RMK AO2 SLP201 T00721022
KHRO 
48nm SW 
280153Z AUTO 20004KT 10SM CLR 08/M03 A3009 RMK AO2 SLP193 T00781033
TAF
KBBG 
36nm SW 
271720Z 2718/2818 22012G18KT P6SM SKC FM280000 20008KT P6SM FEW250 FM280600 18010G18KT P6SM FEW250 WS020/23045KT FM281200 19013G21KT P6SM SCT200 WS015/22040KT FM281600 20015G26KT P6SM BKN100
KSGF 
37nm NW 
271720Z 2718/2818 24016G26KT P6SM SCT180 FM280000 21010KT P6SM FEW250 FM280600 18012G23KT P6SM SCT250 WS020/22045KT FM281200 19016G27KT P6SM FEW200 WS015/21040KT FM281600 20023G35KT P6SM SCT150
KBPK 
38nm S 
271733Z 2718/2818 25014G24KT P6SM SKC WS020/25050KT FM272000 22015G25KT P6SM SCT250 FM280000 17007KT P6SM SCT250 FM281500 16012KT P6SM BKN100 BKN250 FM281700 17012G20KT P6SM BKN050 OVC100
NOTAMs
Click for the latest NOTAMs
NOTAMs are issued by the DoD/FAA and will open in a separate window not controlled by AirNav.

 

 
 

FBO, Fuel Providers, and Aircraft Ground Support

  
 Business Name 
 
 Contact 
 
 Services / Description 
 
Fuel Prices
 
Comments
  
City of Ava, Missouri 417-840-2301
417-683-5516
[web site]
[email]
Aviation fuel, Aircraft parking (ramp or tiedown), Passenger terminal and lounge, Aircraft maintenance, Rental cars delivered, Public telephone, Computerized weather, ...

More info about City of Ava, Missouri
Phillips 66
100LL
SS $5.45 
 Updated 18-Jan-2023
 
   write
SS=Self service
Update Fuel Prices
 

Would you like to see your business listed on this page?

 If your business provides an interesting product or service to pilots, flight crews, aircraft, or users of the Ava Bill Martin Memorial Airport, you should consider listing it here.  To start the listing process, click on the button below
 
Add a business
 

Other Pages about Ava Bill Martin Memorial Airport

Update a link
 
Copyright © AirNav, LLC. All rights reserved. Privacy Policy  Contact